| time (UTC) | temp F | wind direction | speed knots | gust knots | rain 1hr in | rain 24hr in | rain mn in | humidity % | barometer mb |
| 20260509231639 | 75 | 46 | 0.9 | 2.6 | 0.00 | 1.01 | 0.21 | 97 | 1010.3 |
| 20260509230638 | 75 | 22 | 0.9 | 4.3 | 0.00 | 1.01 | 0.21 | 97 | 1010.3 |
| 20260509225637 | 75 | 29 | 0.9 | 5.2 | 0.00 | 1.01 | 0.21 | 97 | 1010.3 |
| 20260509224636 | 75 | 26 | 1.7 | 6.1 | 0.00 | 1.01 | 0.21 | 97 | 1009.9 |
| 20260509223635 | 76 | 31 | 1.7 | 5.2 | 0.00 | 1.01 | 0.21 | 97 | 1009.9 |
| 20260509222634 | 76 | 32 | 1.7 | 6.1 | 0.00 | 1.01 | 0.21 | 96 | 1009.9 |
| 20260509221531 | 76 | 27 | 1.7 | 7.0 | 0.00 | 1.01 | 0.21 | 97 | 1009.9 |
| 20260509220459 | 76 | 18 | 1.7 | 7.0 | 0.04 | 1.01 | 0.21 | 97 | 1009.9 |
| 20260509215427 | 76 | 53 | 0.9 | 4.3 | 0.12 | 1.01 | 0.21 | 97 | 1009.6 |
| 20260509214426 | 75 | 66 | 0.9 | 4.3 | 0.21 | 1.01 | 0.21 | 97 | 1009.6 |
| 20260509213354 | 76 | 25 | 1.7 | 5.2 | 0.21 | 1.01 | 0.21 | 96 | 1009.6 |
| 20260509212321 | 76 | 17 | 0.9 | 3.5 | 0.21 | 1.01 | 0.21 | 96 | 1009.6 |
| 20260509211321 | 76 | 25 | 1.7 | 2.6 | 0.21 | 1.01 | 0.21 | 95 | 1009.6 |
| 20260509210320 | 77 | 338 | 0.0 | 6.1 | 0.17 | 0.97 | 0.17 | 92 | 1010.3 |
| 20260509205248 | 81 | 310 | 1.7 | 7.0 | 0.05 | 0.85 | 0.05 | 86 | 1009.9 |
| 20260509204247 | 86 | 315 | 1.7 | 6.1 | 0.00 | 0.80 | 0.00 | 68 | 1009.3 |
| 20260509203246 | 89 | 312 | 1.7 | 7.0 | 0.00 | 0.80 | 0.00 | 61 | 1008.6 |
| 20260509202245 | 91 | 316 | 0.9 | 1.7 | 0.00 | 0.80 | 0.00 | 56 | 1008.6 |
| 20260509201244 | 91 | 308 | 0.9 | 1.7 | 0.00 | 0.80 | 0.00 | 56 | 1008.6 |
| 20260509200243 | 91 | 274 | 0.9 | 2.6 | 0.00 | 0.80 | 0.00 | 56 | 1008.6 |
| 20260509195140 | 91 | 297 | 0.9 | 3.5 | 0.00 | 0.80 | 0.00 | 56 | 1008.6 |
| 20260509194139 | 91 | 256 | 0.9 | 6.1 | 0.00 | 0.80 | 0.00 | 55 | 1008.9 |
| 20260509193138 | 91 | 298 | 1.7 | 6.1 | 0.00 | 0.80 | 0.00 | 55 | 1008.6 |
| 20260509192137 | 91 | 302 | 0.9 | 3.5 | 0.00 | 0.80 | 0.00 | 55 | 1008.9 |
| 20260509191136 | 92 | 305 | 1.7 | 3.5 | 0.00 | 0.80 | 0.00 | 53 | 1008.9 |
| 20260509190135 | 92 | 271 | 0.9 | 3.5 | 0.00 | 0.80 | 0.00 | 53 | 1009.3 |
| 20260509185134 | 91 | 279 | 1.7 | 4.3 | 0.00 | 0.80 | 0.00 | 54 | 1009.3 |
| 20260509184133 | 92 | 271 | 1.7 | 5.2 | 0.00 | 0.80 | 0.00 | 53 | 1009.6 |
| 20260509183132 | 92 | 224 | 1.7 | 5.2 | 0.00 | 0.80 | 0.00 | 53 | 1009.6 |
| 20260509182131 | 91 | 276 | 1.7 | 4.3 | 0.00 | 0.80 | 0.00 | 54 | 1010.0 |
| 20260509181131 | 91 | 271 | 1.7 | 4.3 | 0.00 | 0.80 | 0.00 | 55 | 1010.0 |
| 20260509180130 | 92 | 281 | 1.7 | 6.1 | 0.00 | 0.80 | 0.00 | 55 | 1010.0 |
| 20260509175129 | 91 | 182 | 2.6 | 6.1 | 0.00 | 0.80 | 0.00 | 56 | 1010.0 |
| 20260509174128 | 91 | 248 | 1.7 | 4.3 | 0.00 | 0.80 | 0.00 | 56 | 1010.3 |
| 20260509173127 | 91 | 307 | 0.9 | 4.3 | 0.00 | 0.80 | 0.00 | 57 | 1010.3 |
| 20260509172055 | 91 | 275 | 2.6 | 7.0 | 0.00 | 0.80 | 0.00 | 57 | 1010.0 |
| 20260509171054 | 92 | 220 | 0.9 | 7.0 | 0.00 | 0.80 | 0.00 | 57 | 1010.0 |
| 20260509170053 | 90 | 200 | 0.9 | 3.5 | 0.00 | 0.80 | 0.00 | 60 | 1010.3 |
| 20260509165052 | 90 | 193 | 1.7 | 3.5 | 0.00 | 0.80 | 0.00 | 60 | 1010.3 |
| 20260509164051 | 90 | 281 | 0.9 | 3.5 | 0.00 | 0.80 | 0.00 | 60 | 1010.3 |
| 20260509163050 | 90 | 243 | 0.9 | 5.2 | 0.00 | 0.80 | 0.00 | 62 | 1010.6 |
| 20260509162049 | 90 | 271 | 0.9 | 6.1 | 0.00 | 0.80 | 0.00 | 64 | 1010.6 |
| 20260509161048 | 89 | 173 | 1.7 | 6.1 | 0.00 | 0.80 | 0.00 | 64 | 1010.6 |
| 20260509160047 | 88 | 248 | 0.9 | 6.1 | 0.00 | 0.80 | 0.00 | 65 | 1010.6 |
| 20260509155046 | 88 | 221 | 0.9 | 6.1 | 0.00 | 0.80 | 0.00 | 65 | 1010.6 |
| 20260509154045 | 88 | 250 | 0.9 | 7.0 | 0.00 | 0.80 | 0.00 | 66 | 1011.0 |
| 20260509153044 | 88 | 206 | 1.7 | 6.1 | 0.00 | 0.80 | 0.00 | 67 | 1011.0 |
| 20260509152043 | 86 | 224 | 1.7 | 6.1 | 0.00 | 0.80 | 0.00 | 69 | 1011.0 |
| 20260509151042 | 85 | 247 | 0.9 | 4.3 | 0.00 | 0.80 | 0.00 | 75 | 1011.3 |
| 20260509145939 | 83 | 181 | 1.7 | 5.2 | 0.00 | 0.80 | 0.00 | 85 | 1011.3 |
| 20260509144907 | 80 | 180 | 0.9 | 5.2 | 0.00 | 0.80 | 0.00 | 95 | 1011.3 |
| 20260509143906 | 79 | 123 | 1.7 | 5.2 | 0.00 | 0.80 | 0.00 | 96 | 1011.3 |
| 20260509142905 | 78 | 159 | 1.7 | 5.2 | 0.00 | 0.80 | 0.00 | 96 | 1011.3 |
| 20260509141904 | 78 | 203 | 0.9 | 4.3 | 0.00 | 0.80 | 0.00 | 96 | 1011.0 |
| 20260509140832 | 78 | 159 | 1.7 | 4.3 | 0.00 | 0.80 | 0.00 | 97 | 1011.0 |
| 20260509135831 | 77 | 173 | 2.6 | 4.3 | 0.00 | 0.80 | 0.00 | 97 | 1010.9 |
| 20260509134830 | 77 | 188 | 1.7 | 4.3 | 0.00 | 0.80 | 0.00 | 97 | 1010.9 |
| 20260509133829 | 77 | 126 | 0.9 | 3.5 | 0.00 | 0.80 | 0.00 | 98 | 1010.6 |
| 20260509132828 | 77 | 162 | 1.7 | 2.6 | 0.00 | 0.80 | 0.00 | 98 | 1010.9 |
| 20260509131827 | 76 | 101 | 1.7 | 2.6 | 0.00 | 0.80 | 0.00 | 98 | 1010.9 |
| 20260509130826 | 76 | 146 | 0.9 | 0.9 | 0.00 | 0.80 | 0.00 | 99 | 1010.9 |
| 20260509125825 | 75 | 121 | 0.0 | 1.7 | 0.00 | 0.80 | 0.00 | 99 | 1010.9 |
| 20260509124824 | 75 | 113 | 0.9 | 2.6 | 0.00 | 0.80 | 0.00 | 99 | 1010.9 |
| 20260509123823 | 74 | 205 | 0.0 | 2.6 | 0.00 | 0.80 | 0.00 | 100 | 1010.9 |
| 20260509122751 | 74 | 18 | 0.0 | 0.9 | 0.00 | 0.80 | 0.00 | 100 | 1010.9 |
| 20260509121750 | 74 | 115 | 0.9 | 0.9 | 0.00 | 0.80 | 0.00 | 100 | 1010.9 |
| 20260509120750 | 74 | 147 | 0.0 | 0.9 | 0.00 | 0.80 | 0.00 | 100 | 1010.6 |
| 20260509115748 | 72 | 148 | 0.0 | 0.0 | 0.00 | 0.80 | 0.00 | 100 | 1010.6 |
| 20260509114747 | 72 | 148 | 0.0 | 0.9 | 0.00 | 0.80 | 0.00 | 100 | 1010.6 |
| 20260509113747 | 71 | 148 | 0.0 | 0.9 | 0.00 | 0.80 | 0.00 | 100 | 1010.6 |
| 20260509112746 | 71 | 19 | 0.0 | 0.9 | 0.00 | 0.80 | 0.00 | 100 | 1010.6 |
| 20260509111744 | 71 | 19 | 0.0 | 0.0 | 0.00 | 0.80 | 0.00 | 100 | 1010.6 |
| 20260509110743 | 71 | 19 | 0.0 | 0.9 | 0.00 | 0.80 | 0.00 | 100 | 1010.6 |
| 20260509105743 | 71 | 19 | 0.0 | 0.9 | 0.00 | 0.80 | 0.00 | 100 | 1010.6 |
| 20260509104742 | 71 | 15 | 0.0 | 0.0 | 0.00 | 0.80 | 0.00 | 100 | 1010.6 |
| 20260509103741 | 71 | 15 | 0.0 | 0.9 | 0.00 | 0.80 | 0.00 | 100 | 1010.6 |
| 20260509102740 | 71 | 347 | 0.0 | 0.9 | 0.00 | 0.80 | 0.00 | 100 | 1010.6 |
| 20260509101740 | 71 | 347 | 0.0 | 0.9 | 0.00 | 0.80 | 0.00 | 100 | 1010.6 |
| 20260509100708 | 71 | 347 | 0.0 | 0.9 | 0.00 | 0.80 | 0.00 | 100 | 1010.3 |
| 20260509095706 | 71 | 347 | 0.0 | 0.9 | 0.00 | 0.80 | 0.00 | 100 | 1010.6 |
| 20260509094634 | 71 | 347 | 0.0 | 0.9 | 0.00 | 0.80 | 0.00 | 100 | 1010.3 |
| 20260509093633 | 71 | 354 | 0.0 | 0.0 | 0.00 | 0.80 | 0.00 | 100 | 1010.3 |
| 20260509092633 | 71 | 354 | 0.0 | 0.9 | 0.00 | 0.80 | 0.00 | 100 | 1010.3 |
| 20260509091631 | 71 | 354 | 0.0 | 0.9 | 0.00 | 0.80 | 0.00 | 100 | 1010.3 |
| 20260509090631 | 71 | 79 | 0.0 | 0.0 | 0.00 | 0.80 | 0.00 | 100 | 1010.3 |
| 20260509085630 | 71 | 79 | 0.0 | 0.9 | 0.00 | 0.80 | 0.00 | 100 | 1010.6 |
| 20260509084558 | 71 | 79 | 0.0 | 0.9 | 0.00 | 0.80 | 0.00 | 100 | 1010.6 |
| 20260509083557 | 71 | 81 | 0.0 | 0.9 | 0.00 | 0.80 | 0.00 | 100 | 1010.3 |
| 20260509082525 | 71 | 34 | 0.0 | 0.9 | 0.00 | 0.80 | 0.00 | 100 | 1010.6 |
| 20260509081452 | 71 | 15 | 0.0 | 0.9 | 0.00 | 0.80 | 0.00 | 100 | 1010.6 |
| 20260509080451 | 71 | 32 | 0.0 | 0.9 | 0.00 | 0.80 | 0.00 | 100 | 1010.6 |
| 20260509075451 | 71 | 103 | 0.0 | 0.9 | 0.00 | 0.80 | 0.00 | 100 | 1010.6 |
| 20260509074419 | 71 | 18 | 0.0 | 0.9 | 0.00 | 0.80 | 0.00 | 100 | 1010.6 |
| 20260509073418 | 71 | 74 | 0.9 | 1.7 | 0.00 | 0.80 | 0.00 | 100 | 1010.6 |
| 20260509072416 | 71 | 16 | 0.0 | 1.7 | 0.00 | 0.80 | 0.00 | 100 | 1010.6 |
| 20260509071415 | 70 | 43 | 0.9 | 2.6 | 0.00 | 0.80 | 0.00 | 100 | 1011.0 |
| 20260509070415 | 70 | 1 | 0.9 | 3.5 | 0.00 | 0.80 | 0.00 | 100 | 1011.0 |
| 20260509065414 | 70 | 36 | 1.7 | 3.5 | 0.00 | 0.80 | 0.00 | 100 | 1011.3 |
| 20260509064342 | 70 | 356 | 0.9 | 0.9 | 0.00 | 0.80 | 0.00 | 100 | 1011.3 |
| 20260509063341 | 70 | 77 | 0.9 | 0.9 | 0.00 | 0.80 | 0.00 | 100 | 1011.3 |
| 20260509062340 | 70 | 24 | 0.9 | 0.9 | 0.00 | 0.80 | 0.00 | 100 | 1011.3 |
| 20260509061339 | 70 | 32 | 0.0 | 0.9 | 0.00 | 0.80 | 0.00 | 100 | 1010.9 |
| 20260509060338 | 70 | 346 | 0.0 | 0.0 | 0.00 | 0.80 | 0.00 | 100 | 1011.3 |
| 20260509055337 | 70 | 344 | 0.0 | 0.9 | 0.00 | 0.80 | 0.00 | 100 | 1011.3 |
| 20260509054336 | 71 | 346 | 0.0 | 0.9 | 0.00 | 0.80 | 0.00 | 100 | 1011.3 |
| 20260509053335 | 71 | 6 | 0.0 | 0.0 | 0.00 | 0.80 | 0.00 | 100 | 1011.3 |
| 20260509052334 | 70 | 27 | 0.0 | 0.0 | 0.00 | 0.80 | 0.00 | 100 | 1011.6 |
| 20260509051333 | 70 | 27 | 0.0 | 0.0 | 0.00 | 0.80 | 0.00 | 100 | 1011.6 |
| 20260509050332 | 70 | 27 | 0.0 | 0.0 | 0.00 | 0.80 | 0.00 | 99 | 1012.0 |
| 20260509045331 | 70 | 27 | 0.0 | 0.0 | 0.00 | 0.80 | 0.00 | 99 | 1012.0 |
| 20260509044330 | 71 | 27 | 0.0 | 0.0 | 0.00 | 0.80 | 0.00 | 99 | 1012.0 |
| 20260509043258 | 71 | 27 | 0.0 | 0.0 | 0.00 | 0.80 | 0.00 | 99 | 1012.0 |
| 20260509042257 | 71 | 27 | 0.0 | 0.0 | 0.00 | 0.80 | 0.00 | 99 | 1012.0 |
| 20260509041257 | 71 | 27 | 0.0 | 0.0 | 0.00 | 0.80 | 0.00 | 99 | 1012.3 |
| 20260509040256 | 71 | 27 | 0.0 | 0.0 | 0.00 | 0.80 | 0.00 | 99 | 1012.3 |
| 20260509035255 | 71 | 28 | 0.0 | 0.0 | 0.00 | 0.80 | 0.80 | 99 | 1012.3 |
| 20260509034254 | 71 | 27 | 0.0 | 0.0 | 0.00 | 0.80 | 0.80 | 99 | 1012.3 |
| 20260509033253 | 71 | 58 | 0.0 | 0.0 | 0.00 | 0.80 | 0.80 | 99 | 1012.3 |
| 20260509032252 | 71 | 75 | 0.0 | 0.0 | 0.00 | 0.80 | 0.80 | 99 | 1012.3 |
| 20260509031251 | 71 | 75 | 0.0 | 0.0 | 0.00 | 0.80 | 0.80 | 99 | 1012.3 |
| 20260509030250 | 71 | 75 | 0.0 | 0.9 | 0.00 | 0.80 | 0.80 | 99 | 1012.3 |
| 20260509025249 | 71 | 75 | 0.9 | 0.9 | 0.00 | 0.80 | 0.80 | 99 | 1012.3 |
| 20260509024249 | 71 | 319 | 0.0 | 0.9 | 0.00 | 0.80 | 0.80 | 99 | 1012.3 |
| 20260509023248 | 71 | 84 | 0.0 | 0.0 | 0.00 | 0.80 | 0.80 | 99 | 1012.3 |
| 20260509022247 | 71 | 32 | 0.0 | 0.9 | 0.03 | 0.80 | 0.80 | 99 | 1012.3 |
| 20260509021246 | 72 | 32 | 0.0 | 1.7 | 0.11 | 0.80 | 0.80 | 99 | 1012.0 |
| 20260509020245 | 72 | 1 | 0.9 | 0.9 | 0.22 | 0.80 | 0.80 | 99 | 1011.6 |
| 20260509015244 | 72 | 84 | 0.9 | 0.9 | 0.24 | 0.80 | 0.80 | 99 | 1011.6 |
| 20260509014243 | 72 | 33 | 0.9 | 1.7 | 0.24 | 0.80 | 0.80 | 99 | 1011.6 |
| 20260509013242 | 72 | 32 | 0.0 | 1.7 | 0.25 | 0.80 | 0.80 | 99 | 1011.6 |
| 20260509012241 | 72 | 323 | 0.9 | 1.7 | 0.57 | 0.76 | 0.76 | 98 | 1011.6 |
| 20260509011209 | 72 | 316 | 0.0 | 4.3 | 0.68 | 0.68 | 0.68 | 98 | 1011.6 |
| 20260509010137 | 72 | 106 | 0.9 | 4.3 | 0.57 | 0.57 | 0.57 | 98 | 1011.3 |
| 20260509005136 | 71 | 15 | 1.7 | 4.3 | 0.56 | 0.56 | 0.56 | 98 | 1010.9 |
| 20260509004135 | 71 | 132 | 0.9 | 9.6 | 0.56 | 0.56 | 0.56 | 97 | 1010.6 |
| 20260509003103 | 72 | 72 | 2.6 | 15.6 | 0.54 | 0.54 | 0.54 | 96 | 1010.6 |
| 20260509002102 | 77 | 26 | 7.0 | 16.5 | 0.05 | 0.05 | 0.11 | 87 | 1011.6 |
| 20260509001101 | 78 | 303 | 1.7 | 6.1 | 0.00 | 0.00 | 0.00 | 82 | 1011.0 |
| 20260509000100 | 79 | 56 | 1.7 | 7.8 | 0.00 | 0.00 | 0.00 | 82 | 1010.3 |
| 20260508235028 | 81 | 39 | 2.6 | 7.8 | 0.00 | 0.00 | 0.00 | 79 | 1009.9 |
| 20260508234027 | 82 | 50 | 3.5 | 6.1 | 0.00 | 0.00 | 0.00 | 77 | 1010.3 |
| 20260508233026 | 82 | 52 | 1.7 | 7.0 | 0.00 | 0.00 | 0.00 | 77 | 1009.6 |